Powrót do katalogu

PUJIANG 2

PJ-2

AktywnyNaukaSSO
NORAD 52151·PAYLOAD·🇨🇳 China

Wystrzelony Mar 29, 2022 z Taiyuan Satellite Launch Center

Loading…

Następne Przeloty (najbliższe 24 godziny)

TLE

ŚwieżeSource: Space-Track

Epoka: Sep 14, 2026, 15:09 UTC

1 52151U 22031B   26257.63158373 -.00000320  00000-0 -24212-4 0  9992
2 52151  97.8623  83.2852 0010244 267.0721  92.9327 14.94396370243158

Śledź PUJIANG 2 w czasie rzeczywistym z AllMySat

Download on the App Store